Regional Weather Roundup
Issued by NWS

Home | Current Version | Previous Version | Text Only | Print | Product List | Glossary Off
Versions: 1 2 3 4 5 6 7 8 9 10 11 12 13 14 15 16 17 18 19 20 21 22 23 24 25 26 27 28 29 30 31 32 33 34 35 36 37 38 39 40 41 42 43 44 45 46 47 48 49 50

000
ASUS43 KLSX 221907
RWRMO

WEATHER SUMMARY FOR MISSOURI
NATIONAL WEATHER SERVICE SPRINGFIELD MO
100 PM CST WED NOV 22 2017

NOTE: "FAIR" INDICATES FEW OR NO CLOUDS BELOW 12,000 FEET WITH NO
       SIGNIFICANT WEATHER AND/OR OBSTRUCTIONS TO VISIBILITY.
       CURRENT SKY AND/OR WEATHER CONDITIONS ARE NOT AVAILABLE FOR
       CHILLICOTHE AND FARMINGTON.

MOZ001>031-035>038-043-044-053-054-222000-
...NORTHERN AND WESTERN MISSOURI...

CITY           SKY/WX    TMP DP  RH WIND       PRES   REMARKS
KANSAS CTY INT SUNNY     38  13  35 SW10      30.32F
KANSAS C DTWN  SUNNY     40  13  33 S7        30.33F
LEE`S SUMMIT   SUNNY     39  15  37 S7        30.33F
ST JOSEPH      SUNNY     37  13  37 SW7       30.33F
CHILLICOTHE      N/A     37  16  42 S6        30.34F
KIRKSVILLE     SUNNY     38  16  40 W9        30.32F

$$
MOZ066>068-077>081-088>096-101>105-222000-
...SOUTHWEST MISSOURI...

CITY           SKY/WX    TMP DP  RH WIND       PRES   REMARKS
SPRINGFIELD    SUNNY     43  18  36 VRB6      30.32F
JOPLIN         SUNNY     41  21  44 CALM      30.36F
BRANSON        SUNNY     41  18  38 CALM      30.33F

$$
MOZ032>034-039>042-045>050-055>058-069>072-222000-
...CENTRAL MISSOURI...

CITY           SKY/WX    TMP DP  RH WIND       PRES   REMARKS
COLUMBIA       SUNNY     39  16  39 CALM      30.33F
JEFFERSON CITY SUNNY     38  16  40 VRB5      30.35F
ROLLA          SUNNY     39  17  41 NW6       30.32F
SEDALIA        SUNNY     39  18  42 W3        30.35F
WHITEMAN AFB   MOSUNNY   38  15  37 W5        30.30F
WARRENSBURG    SUNNY     36  16  44 SE5       30.35F
OSAGE BEACH    SUNNY     40  15  36 VRB5      30.34F

$$
MOZ051-052-059>065-222000-
...EAST CENTRAL MISSOURI...

CITY           SKY/WX    TMP DP  RH WIND       PRES   REMARKS
ST LOUIS INTL  SUNNY     38  19  46 NW5       30.35F
SPIRIT OF STL  SUNNY     38  18  44 CALM      30.34F
ST CHARLES     SUNNY     37  17  44 CALM      30.35F

$$
MOZ072>076-082>087-097>100-106>115-222000-
...SOUTH CENTRAL AND SOUTHEAST MISSOURI...

CITY           SKY/WX    TMP DP  RH WIND       PRES   REMARKS
CAPE GIRARDEAU SUNNY     41  20  43 MISG      30.31F
FARMINGTON     SUNNY     39  18  42 N7        30.31F
POPLAR BLUFF   SUNNY     44  20  38 N7        30.31F
WEST PLAINS    SUNNY     44  14  29 VRB6      30.31F

$$


USA.gov is the U.S. government's official web portal to all federal, state and local government web resources and services.